Regional Weather Roundup
Issued by NWS

Home | Current Version | Previous Version | Text Only | Print | Product List | Glossary On
Versions: 1 2 3 4 5 6 7 8 9 10 11 12 13 14 15 16 17 18 19 20 21 22 23 24 25 26 27 28 29 30 31 32 33 34 35 36 37 38 39 40 41 42 43 44 45 46 47 48 49 50
000
ASCA44 KEWX 290520
RWRMX

LATIN AMERICA AND CARIBBEAN REGIONAL WEATHER ROUNDUP
NATIONAL WEATHER SERVICE AUSTIN/SAN ANTONIO TX
1200 AM CDT FRI MAY 29 2015

NOTE: "FAIR" INDICATED FEW OR NO CLOUDS BELOW 12,000 FEET WITH NO
SIGNIFICANT WEATHER AND/OR OBSTRUCTIONS TO VISIBILITY.

BAJA CALIFORNIA

CITY           SKY/WX    TMP DP  RH WIND       PRES   REMARKS
LA PAZ         CLEAR     75  55  50 S8        29.93R
MEXICALI       CLEAR     77  45  31 SE6       29.82R
S.J. DEL CABO  CLEAR     82  50  32 CALM      29.89R
TIJUANA        CLEAR     57  52  82 W6        29.99R

NORTHWESTERN MEXICO

CITY           SKY/WX    TMP DP  RH WIND       PRES   REMARKS
CULIACAN       CLEAR     81  70  69 CALM      29.90R
HERMOSILLO     CLEAR     81  39  22 S5        29.91R
CD. JUAREZ       N/A    N/A N/A N/A MISG        N/A
LOS MOCHIS       N/A    N/A N/A N/A MISG        N/A

NORTHEASTERN MEXICO

CITY           SKY/WX    TMP DP  RH WIND       PRES   REMARKS
CHIHUAHUA      PTCLDY    70  27  19 SE9       30.03R
MATAMOROS      PTCLDY    81  77  89 E9        29.98S
MONTERREY      CLOUDY    77  70  78 E14       29.93R
TORREON        CLEAR     81  54  39 E18       30.03R

WESTERN MEXICO

CITY           SKY/WX    TMP DP  RH WIND       PRES   REMARKS
AGUASCALIENTES PTCLDY    63  48  59 S10       30.28R
DEL BAJIO      LGT RAIN  59  57  94 CALM      30.33S
GUADALAJARA    RAIN      68  59  73 CALM      30.20R
MAZATLAN       CLEAR     72  66  83 E7        29.88R
P. VALLARTA    PTCLDY    82  70  65 N5        29.91R
ZACATECAS      PTCLDY    59  48  67 E10       30.31R

CENTRAL MEXICO

CITY           SKY/WX    TMP DP  RH WIND       PRES   REMARKS
MEXICO CITY    CLOUDY    59  52  77 NE3       30.35F
QUERETARO      TSTM      59  55  88 NE13      30.36R
S. LUIS POTOSI CLEAR     63  52  67 SE9       30.26R
TAMPICO          N/A    N/A N/A N/A MISG        N/A
TOLUCA         CLOUDY    54  48  82 NE3       30.42F

SOUTHERN MEXICO

CITY           SKY/WX    TMP DP  RH WIND       PRES   REMARKS
ACAPULCO       PTCLDY    84  77  79 W2        29.90S HX  94
VERACRUZ       MOCLDY    79  75  89 NW3       29.96R

YUCATAN PENINSULA

CITY           SKY/WX    TMP DP  RH WIND       PRES   REMARKS
CANCUN         PTCLDY    81  72  74 NE6       29.99F
COZUMEL        PTCLDY    73  72  94 CALM      29.99S
MERIDA         CLEAR     81  72  74 E8        29.96S

CENTRAL AMERICA

CITY           SKY/WX    TMP DP  RH WIND       PRES   REMARKS
MANAGUA        PTCLDY    81  68  65 E5        29.89S

CARIBBEAN

CITY           SKY/WX    TMP DP  RH WIND       PRES   REMARKS
ARUBA          PTCLDY    82  77  83 E16       29.86F HX  91
KINGSTON       PTCLDY    81  73  78 N5        29.94S
NASSAU         MOCLDY    75  66  73 VRB1      30.06F
SAN JUAN       CLEAR     79  73  83 CALM      30.00S
SANTO DOMINGO  LGT RAIN  73  72  94 CALM      29.97F
ST. CROIX      PTCLDY    81  73  78 E8        29.99F
ST. MAARTEN    PTCLDY    81  75  83 E7        29.97F
ST. THOMAS     CLOUDY    79  73  83 E5        29.98F

$$



USA.gov is the U.S. government's official web portal to all federal, state and local government web resources and services.